STARLINK-1212, 45223

Orbit data source: Space-Track

STARLINK-1212, 45223 is a payload satellite owned by SpaceX/Seattle (US) in LEO that was launched on Mon, 17 Feb 2020 UTC via an FALCON 9 launch vehicle from the Air Force Eastern Test Range (AFETR). Payload-class satellites include a variety of spacecraft equipped with specific instruments for various scientific and technological missions. These include communications satellites like Starlink; space stations such as the ISS; scientific satellites like the Hubble; Earth observation satellites from companies like Planet Labs, Umbra, and HawkEye 360; GPS; miniature CubeSats for education and research; and military/defense satellites.

Loading next visibility...
Identifier
45223, 2020-012AX
Orbit
LEO
Country
Flag of USUS
Related business
Manufacturer
SpaceX/Seattle
Mission
Partially operational Commercial Communications
Bus & Motor
STARLINK, Unknown motor
Mass
260 kg wet, ~248 kg dry
Launch date (UTC)
2020-02-17 (6 years ago)
Launch vehicle
FALCON 9
Launch site
Air Force Eastern Test Range (AFETR)
Object type
Payload
Rocket body
Debris
Shape & HBR
Box + 1 Pan, 10.1 m
Radar Cross Section
13.562 m², Large (>1 m²)

Expand to show TLE details & history
Last TLE update: 2 days ago

TLE from 2 days ago
0 STARLINK-1212
1 45223U 20012AX  26171.50003471  .00021964  00000-0  17948-3 0  9992
2 45223  53.0381 208.1269 0001512  80.4164 196.1601 15.70528969  6000
Epoch: 2026-06-20T12:00Z
TLE epoch observation values (Epoch: 2026-06-20T12:00:02.998Z)
Latitude
-52.69822°
Longitude
40.22125°
Altitude
376.637 km
Speed
7.683 km/s
True Right ascension
08h 35m 47s
True Declination
-52° 31' 22"
Sunlit
Object was in daylight at epoch
Visualization orbit readout
Latitude
Unknown
Longitude
Unknown
Altitude
Unknown
Speed
Unknown
Apparent Right ascension
Unknown
Apparent Declination
Unknown
Sunlit
N/A
Visualization observer readout
Local Sidereal Time
23:27:10
Azimuth
Unknown
Elevation
Unknown
Doppler factor
Unknown
Orbital elements
Apogee altitude
358.683 km
Perigee altitude
356.647 km
Semi-major axis
6,735.802 km
Eccentricity
0.00015
Inclination
53.0381°
RAAN
208.1269°
Arg. of periapsis
80.4164°
True anomaly
196.15528°
Mean anomaly
196.1601°
Eccentric anomaly
196.15769°
Mean motion
3.92608 °/min
Orbital period
91.69 mins
BSTAR
0.00017948
Loading maneuver chart data...
Computing Atmospheric mass density...

Documentation

Showing up to 5 results
|